AirNav   Pilot Hours Calculator
 
 1581 users online  

KNUQ Moffett Federal Airfield
Mountain View, California, USA

GOING TO MOUNTAIN VIEW?


FAA INFORMATION EFFECTIVE 03 NOVEMBER 2022

Location

FAA Identifier: NUQ
Lat/Long: 37-24-58.1180N 122-02-56.8650W
37-24.968633N 122-02.947750W
37.4161439,-122.0491292
(estimated)
Elevation: 36.9 ft. / 11 m (estimated)
Variation: 16E (1980)
From city: 3 miles N of MOUNTAIN VIEW, CA
Time zone: UTC -8 (UTC -7 during Daylight Saving Time)
Zip code: 94043

Airport Operations

Airport use: Private use. Permission required prior to landing
Control tower: yes
ARTCC: OAKLAND CENTER
FSS: OAKLAND FLIGHT SERVICE STATION
FSS-OAKLAND OAK-NOTAM NUQ
NOTAMs facility: NUQ (NOTAM-D service available)
Attendance: CONTINUOUS
Pattern altitude: 1004(968) RWY 14L/R, 1504(1468) RWY 32L/R. MIN ALT 75' AGL OVER HWY AT SOUTH BDRY. TRAN PRACTICE APCH/TGL RQRS ARPT MGR APVL.
Wind indicator: lighted
Segmented circle: yes
Lights: WHEN TWR CLSD, ACTVT REIL RWY 14L; MALSR RWY 32R; PAPI RWY 14L & 32R; HIRL RWY 14L/32R & 14R/32L- CTAF.
Beacon: white-green (lighted land airport)
Operates sunset to sunrise.
International operations: international airport of entry
US CUSTOMS USER FEE ARPT.

Airport Communications

CTAF: 119.55
ATIS: 124.175 283.0
WX AWOS-3PT: 124.175 (650-386-0655)
MOFFETT GROUND: 121.85 278.95 [1500-0700Z++]
MOFFETT TOWER: 119.55 259.65 [1500-0700Z++]
NORCAL APPROACH: 120.1 135.2 133.95 134.5
NORCAL DEPARTURE: 120.1
CLEARANCE DELIVERY: 296.75
ALCP: 349.4
EMERG: 121.5 243.0
IC: 120.1
PMSV METRO: 341.3
SFA: 134.1
SOUTLAND DP: 121.3
WOODSIDE DP: 121.3
WX ASOS at SJC (7 nm SE): 126.95 (408-969-0838)
WX AWOS-3P at SQL (11 nm NW): 125.9 (650-593-0613)
WX ASOS at HWD (15 nm N): PHONE 510-786-3052
WX ASOS at SFO (20 nm NW): PHONE 650-827-8593
WX ASOS at LVK (20 nm NE): PHONE 925-606-5412
  • ATCT OPER BY AIR NATIONAL GUARD.
  • COMMUNICATIONS: ANG - OPR 1400-2330Z++. 390.9 5711 REMARKS: SQ OPS, CALL MOFFETT RESCUE. (5711 USB).

Nearby radio navigation aids

VOR radial/distance  VOR name  Freq  Var
SJCr281/5.6SAN JOSE VOR/DME114.1016E
OSIr066/11.2WOODSIDE VOR/DME113.9017E
SFOr111/19.7SAN FRANCISCO VOR/DME115.8017E
OAKr139/20.4OAKLAND VOR/DME116.8017E
SAUr123/34.7SAUSALITO VOR/DME116.2017E
CCRr163/37.7CONCORD VOR/DME117.0017E

Airport Services

Fuel available: A
A:JET A AVAIL 24 HRS.
Parking: tiedowns
Airframe service: NONE
Powerplant service: NONE
Bottled oxygen: NONE
Bulk oxygen: NONE

Runway Information

Runway 14L/32R

Dimensions: 9197 x 200 ft. / 2803 x 61 m
Surface: concrete
Weight bearing capacity: 
PCN 63 /R/B/W/T
Runway edge lights: high intensity
RUNWAY 14L  RUNWAY 32R
Latitude: 37-25.735377N37-24.333055N
Longitude: 122-03.276380W122-02.555897W
Elevation: 5.6 ft.31.5 ft.
Traffic pattern: leftleft
Runway heading: 141 magnetic, 157 true321 magnetic, 337 true
Displaced threshold: no191 ft.
Markings: precision, in good conditionprecision, in good condition
Visual slope indicator: 4-light PAPI on left (3.00 degrees glide path)4-light PAPI on left (3.00 degrees glide path)
Approach lights: MALSR: 1,400 foot medium intensity approach lighting system with runway alignment indicator lights
Runway end identifier lights: yes
Touchdown point: yes, no lightsyes, no lights
Instrument approach: LOC/DMEILS/DME

Runway 14R/32L

Dimensions: 8121 x 200 ft. / 2475 x 61 m
Surface: asphalt
Weight bearing capacity: 
PCN 33 /R/B/W/T
Runway edge lights: high intensity
RUNWAY 14R  RUNWAY 32L
Latitude: 37-25.513435N37-24.275242N
Longitude: 122-03.301677W122-02.665618W
Elevation: 4.3 ft.36.4 ft.
Traffic pattern: leftleft
Runway heading: 141 magnetic, 157 true321 magnetic, 337 true
Displaced threshold: no600 ft.
Markings: nonprecision, in good conditionnonprecision, in good condition
Touchdown point: yes, no lightsyes, no lights

Airport Ownership and Management from official FAA records

Ownership: Publicly-owned
LESSEE: PLANETARY VENTURES
Owner: NASA AMES RESEARCH CENTER
AIRFIELD MGT OFS, 158 CODY RD
MOFFETT FIELD, CA 94035-1000
Phone 650-604-0677
Manager: DEREK PRISTAVOK
158 CODY RD, ROOM 103
MOFFETT FIELD, CA 94035-1000
Phone 650-386-0680
ATC MGR PHONE: 650-603-9211

Airport Operational Statistics

Aircraft based on the field: 24
Multi engine airplanes: 4
Jet airplanes: 6
Helicopters: 5
Ultralights: 1
Military aircraft: 8
    

Additional Remarks

BEARING STRENGTH RY 14L: S64 T110 ST144 SBTT410 TDT528 TRT390).
CSTMS/AG/IMG - CSTMS, AG, IMG AVBL ONLY BY PN MON-FRI 1700-0100Z++ EXC HOL.
CAUTION - POSSIBLE STRONG UPDRAFT VCNTY NASA/AMES WIND TUNNEL LCTD W SIDE OF AFLD. BIRD HAZ.
NS ABTMT - NO JET DEP RWY 14L/R BTN HRS OF 0700-1300Z++.
BEARING STRENGTH RY 32R: S82 T142 ST175 TT300 DDT609, TDT814.
CAUTION: AIRPORT SIGNAGE UNAVBL TO INCL RWY, TWY, INST, LOC, DIREC, DESTN, AND INFO SIGNS.
BIRD HAZARD LIKELY TO BE HIGHEST FROM OCT TO MAR (PHASE II) AND LOWER FROM APR TO SEP (PHASE I).
JET A++ FUEL AVBL. JP-8 NOT AVBL.
JASU - (AM32A-60) (AM32A-86).
RSTD - TWY D CLSD DRG NON-DALGT HRS.
FOR CD WHEN ATCT IS CLSD CTC NORCAL APCH AT 916-361-3748.
MISC - UPDATE ETA +15 MINS AT LEAST 2 HRS PRIOR ARR. TWR FREQ MONITOR BY NASA FIRE/SECURITY.
MILITARY REMARKS - ANG OPR 1330-2400Z++ MON-THU AND EVERY OTR FRI. CLSD SAT, SUN AND HOL. COMD POST C650-603-9333. PRKG ON ANG RAMP IS PPR OFFL BUS AND PRE-CDN WITH 129 OSF/OSA AT C650-603-8234 RQRD. LTD MAINT AND FUEL SUPPORT FOR C130 AND H60 ACFT, NO PAX AND NO TSNT ALERT SVC. LTD RAMP SPACE. TSNT ACFT MAY BE DIV TO NASA FBO. AIRFIELD MGR DOES NOT STORE COMSEC.
MILITARY SERVICES - FUEL AVBL MON-FRI 1700-0200Z++.
FLUID - SP LOX - LTD AVBL.
RSTD - PPR ALFD OPS OPR 24 HRS, TRAN ALERT SVC 24 HRS, C650-386-0677. RECOMMEND SID, EXP DELAY FOR RADAR VECTORS.

Instrument Procedures

NOTE: All procedures below are presented as PDF files. If you need a reader for these files, you should download the free Adobe Reader.

NOT FOR NAVIGATION. Please procure official charts for flight.
FAA instrument procedures published for use from 03 November 2022 at 0901Z to 01 December 2022 at 0900Z.

 
STARs - Standard Terminal Arrivals
POINT REYES THREE   download (241KB)
POINT REYES THREE   download (241KB)
 
IAPs - Instrument Approach Procedures
ILS OR LOC RWY 32R **CHANGED**   download (418KB)
RNAV (GPS) RWY 14L **CHANGED**   download (259KB)
RNAV (GPS) RWY 14R **CHANGED**   download (265KB)
RNAV (GPS) RWY 32L **CHANGED**   download (352KB)
RNAV (GPS) RWY 32R **CHANGED**   download (360KB)
LOC RWY 14L **CHANGED**   download (312KB)
TACAN RWY 32L **CHANGED**   download (383KB)
TACAN RWY 32R **CHANGED**   download (393KB)
DUMBARTON VISUAL RWY 14L **NEW**   download (219KB)
NOTE: Special Alternate Minimums apply   download (133KB)
 
Departure Procedures
HOOKS TWO   download (162KB)
SOUTHLAND THREE   download (259KB)
WOODSIDE TWO   download (173KB)
NOTE: Special Take-Off Minimums/Departure Procedures apply   download (347KB)

Other nearby airports with instrument procedures:

KPAO - Palo Alto Airport (4 nm NW)
KSJC - Norman Y Mineta San Jose International Airport (7 nm SE)
KSQL - San Carlos Airport (11 nm NW)
KRHV - Reid-Hillview Airport of Santa Clara County (12 nm SE)
KHWD - Hayward Executive Airport (15 nm N)
KSFO - San Francisco International Airport (20 nm NW)
KLVK - Livermore Municipal Airport (20 nm NE)
 
Loc | Ops | Rwys | IFR | FBO | Links
Com | Nav | Svcs | Stats | Notes
Area around KNUQ (Moffett Federal Airfield)
 
Road maps at: MapQuest Bing Google
 
Aerial photo
WARNING: Photo may not be current or correct
Aerial photo of KNUQ (Moffett Federal Airfield)
Photo courtesy of focalflight.com
Photo taken 10-Apr-2015
looking north.

Do you have a better or more recent aerial photo of Moffett Federal Airfield that you would like to share? If so, please send us your photo.

 
Sectional chart

 
Airport diagram
Diagram of KNUQ (Moffett Federal Airfield)
Download PDF
of official airport diagram from the FAA

 
Airport distance calculator
Flying to Moffett Federal Airfield? Find the distance to fly.

From to KNUQ

Sunrise and sunset
Times for 28-Nov-2022
 Local
(UTC-8)
 Zulu
(UTC)
Morning civil twilight06:3414:34
Sunrise07:0215:02
Sunset16:5000:50
Evening civil twilight17:1901:19

Current date and time
Zulu (UTC)  28-Nov-2022 19:40:28
Local (UTC-8)  28-Nov-2022 11:40:28
 
METAR
KNUQ 281905Z AUTO 34004KT 10SM SCT036 14/09 A3003 RMK AO2
KPAO 
4nm NW 
281855Z 29008KT 10SM FEW050 13/09 A3003
KSJC 
7nm SE 
281853Z 35005KT 10SM FEW011 SCT075 BKN120 15/08 A3003 RMK AO2 SLP168 T01500078
KSQL 
11nm NW 
281847Z 29011G18KT 10SM SCT200 15/08 A3004
KRHV 
13nm SE 
281847Z 32006KT 10SM FEW040 SCT100 14/08 A3004
KHWD 
15nm N 
281854Z 24006KT CLR 14/09 A3002 RMK AO2 SLP176 T01390089 $
KOAK 
19nm NW 
281853Z 25005KT 10SM FEW010 FEW030 SCT200 13/08 A3003 RMK AO2 SLP167 T01330083
KSFO 
19nm NW 
281856Z 29019G23KT 10SM FEW005 BKN200 15/09 A3003 RMK AO2 SLP168 T01500094
TAF
KSJC 
7nm SE 
281738Z 2818/2918 VRB05KT P6SM FEW012 BKN150 TEMPO 2818/2819 SCT012 FM281900 32015G22KT P6SM SCT200 FM282200 32020G27KT P6SM FEW200 FM290400 34009KT P6SM SKC FM291200 VRB04KT P6SM SKC
KOAK 
19nm NW 
281738Z 2818/2924 VRB05KT P6SM FEW012 SCT200 FM281900 29016G25KT P6SM FEW200 FM290300 32014G22KT P6SM SKC FM290800 33008KT P6SM SKC FM291200 VRB04KT P6SM SKC FM292200 30009KT P6SM SKC
KSFO 
19nm NW 
281738Z 2818/2924 29020KT P6SM FEW006 FEW200 FM282000 29024G33KT P6SM FEW200 FM290200 31017G28KT P6SM SKC FM290800 34008KT P6SM SKC FM291500 01010KT P6SM FEW008 FEW200
NOTAMs
Click for the latest NOTAMs
NOTAMs are issued by the DoD/FAA and will open in a separate window not controlled by AirNav.

 

 
 

FBO, Fuel Providers, and Aircraft Ground Support

  
 Business Name 
 
 Contact 
 
 Services / Description 
 
Fuel Prices
 
Comments
  
 Avports Moffett Field
650-386-0677
[web site]
[email]
Moffett Field is now open for private aircraft. Under an agreement with NASA, corporate and charter jets are now authorized to use the airport within our standard PPR Permit system. See our website for more information. AvPORTS is the airfield management operator and a full service FBO. Fly NUQ
 
Face masks required   IS-BAH Registered   NATA Safety 1st   U.S. Government Contract Fuel   U.S. Government AIR Card   U.S. Customs Service   Wireless Internet Access (WiFi)   National Business Aviation Association  
 
More info about Avports Moffett Field
World Fuel Services
Jet A
FS $6.74 
GUARANTEED
 
   write
FS=Full service
Update Fuel Prices
 

Would you like to see your business listed on this page?

 If your business provides an interesting product or service to pilots, flight crews, aircraft, or users of the Moffett Federal Airfield, you should consider listing it here.  To start the listing process, click on the button below
 
Add a business
 

Other Pages about Moffett Federal Airfield

ccf.arc.nasa.gov/...
Moffett Users page
Save Hangar One Committee
 
Update a link
 
Copyright © AirNav, LLC. All rights reserved. Privacy Policy  Contact